Location: ČR
(50.0000°N, 15.0000°E)
Time: 07:56:36
(UTC+00:00)

SR - Visible Passes

Search period start: 21 October 2021 00:00
Search period end: 31 October 2021 00:00
Orbit: 582 x 872 km, 66.7° (Epoch: 20 October)

Date Brightness Start Highest point End Pass type
(mag) Time Alt. Az. Time Alt. Az. Time Alt. Az.
21 Oct ? 17:38:13 10° NW 17:42:29 73° WSW 17:45:32 18° SSE visible
22 Oct ? 16:48:23 10° NNW 16:52:38 58° NE 16:56:50 10° SE visible
22 Oct ? 18:31:09 10° WNW 18:34:14 20° WSW 18:37:18 10° SSW visible
23 Oct ? 17:40:42 10° NW 17:44:40 38° WSW 17:48:38 10° S visible
24 Oct ? 16:50:40 10° NW 16:54:57 79° SW 16:59:12 10° SSE visible
24 Oct ? 18:35:45 10° W 18:36:09 10° WSW 18:36:32 10° WSW visible
25 Oct ? 17:43:30 10° WNW 17:46:42 21° WSW 17:49:56 10° SSW visible
26 Oct ? 16:53:07 10° NW 16:57:08 41° WSW 17:01:09 10° S visible
27 Oct ? 17:47:26 10° W 17:48:39 11° WSW 17:49:52 10° WSW visible
28 Oct ? 16:55:52 10° WNW 16:59:12 23° WSW 17:02:33 10° SSW visible
30 Oct ? 16:59:29 10° W 17:01:09 12° WSW 17:02:49 10° SW visible
